2022/07/03 23:32:27+0000,-33.91,-43.00,-32.93,-36.50,-49.17,-54.37
2022/07/03 23:33:19+0000,-34.00,-43.46,-32.67,-35.58,-49.04,-54.15
2022/07/03 23:34:11+0000,-33.91,-42.84,-32.65,-34.92,-49.13,-54.62
2022/07/03 23:35:03+0000,-33.95,-43.60,-32.61,-34.72,-48.99,-54.15
2022/07/03 23:35:55+0000,-34.16,-44.22,-33.08,-35.23,-48.39,-54.29
2022/07/03 23:36:47+0000,-34.58,-44.08,-33.37,-35.77,-49.41,-54.44
2022/07/03 23:37:39+0000,-33.83,-43.95,-32.79,-35.35,-48.74,-53.59
2022/07/03 23:38:31+0000,-34.02,-44.21,-32.70,-35.79,-48.95,-54.23
2022/07/03 23:39:23+0000,-33.39,-44.18,-32.52,-35.68,-48.76,-54.00
2022/07/03 23:40:15+0000,-34.17,-43.20,-32.79,-35.92,-49.64,-53.85
2022/07/03 23:41:14+0000,-34.21,-43.52,-32.58,-36.22,-48.14,-53.85
2022/07/03 23:42:06+0000,-32.63,-44.12,-32.40,-35.70,-49.21,-53.16
2022/07/03 23:42:58+0000,-32.91,-43.10,-32.33,-35.77,-49.51,-53.78
2022/07/03 23:43:50+0000,-32.43,-43.45,-32.80,-36.34,-13.02,-54.21
2022/07/03 23:44:42+0000,-34.50,-44.52,-32.56,-35.65,-49.03,-53.05
2022/07/03 23:45:34+0000,-33.89,-43.32,-32.36,-34.64,-49.02,-53.70
2022/07/03 23:46:26+0000,-33.57,-43.34,-32.85,-34.28,-49.22,-53.84
2022/07/03 23:47:18+0000,-33.78,-43.16,-32.62,-34.44,-11.57,-54.24
2022/07/03 23:48:10+0000,-33.68,-43.53,-32.44,-34.19,-49.42,-54.08
2022/07/03 23:49:02+0000,-34.79,-43.69,-32.08,-35.13,-50.20,-53.68
2022/07/03 23:49:54+0000,-33.52,-44.30,-32.73,-35.52,-12.34,-54.04
2022/07/03 23:50:46+0000,-35.38,-42.91,-33.08,-35.39,-11.41,-53.19
2022/07/03 23:51:50+0000,-34.50,-43.91,-33.06,-34.90,-11.48,-54.13
2022/07/03 23:52:42+0000,-34.05,-43.64,-32.50,-34.58,-48.81,-53.74
2022/07/03 23:53:34+0000,-34.40,-43.89,-32.85,-35.00,-48.59,-54.01
2022/07/03 23:54:26+0000,-30.36,-43.85,-32.94,-35.36,-49.19,-54.30
2022/07/03 23:55:18+0000,-34.60,-42.98,-32.83,-33.97,-12.26,-53.91
2022/07/03 23:56:10+0000,-33.68,-42.75,-32.90,-34.66,-49.24,-54.16
2022/07/03 23:57:02+0000,-33.90,-43.51,-32.87,-34.53,-49.01,-54.49
2022/07/03 23:57:54+0000,-34.72,-43.24,-32.77,-34.34,-11.47,-54.07
2022/07/03 23:58:46+0000,-33.53,-43.64,-33.14,-35.08,-11.88,-54.89
2022/07/03 23:59:38+0000,-34.44,-44.05,-32.90,-34.78,-49.04,-53.80
2022/07/04 00:00:30+0000,-35.07,-44.91,-33.05,-34.19,-49.04,-54.36
2022/07/04 00:01:38+0000,-34.33,-44.63,-32.59,-34.66,-49.58,-54.30
2022/07/04 00:02:30+0000,-35.40,-44.33,-33.26,-34.48,-48.51,-53.77
2022/07/04 00:03:22+0000,-34.32,-44.06,-33.26,-34.55,-49.21,-54.12
2022/07/04 00:04:14+0000,-34.47,-44.56,-33.08,-34.00,-49.78,-54.15
2022/07/04 00:05:06+0000,-34.65,-42.72,-32.56,-35.05,-49.47,-54.60
2022/07/04 00:05:58+0000,-34.47,-44.41,-33.11,-34.32,-48.86,-54.28
2022/07/04 00:06:50+0000,-35.16,-44.18,-32.39,-35.32,-11.58,-54.18
2022/07/04 00:07:42+0000,-34.76,-42.73,-32.78,-34.41,-11.54,-54.04
2022/07/04 00:08:34+0000,-34.78,-43.97,-32.74,-35.19,-49.17,-54.11
2022/07/04 00:09:26+0000,-34.86,-43.92,-33.10,-35.19,-49.19,-54.52
2022/07/04 00:10:18+0000,-34.41,-43.95,-32.45,-35.12,-11.92,-54.19
2022/07/04 00:11:32+0000,-35.14,-44.69,-32.03,-33.85,-48.94,-53.69
2022/07/04 00:12:24+0000,-35.02,-43.65,-32.59,-34.25,-48.32,-54.21
2022/07/04 00:13:16+0000,-35.10,-44.07,-32.99,-34.76,-11.67,-53.96
2022/07/04 00:14:08+0000,-35.10,-44.02,-33.35,-34.42,-48.97,-54.09
2022/07/04 00:15:00+0000,-34.37,-44.58,-32.63,-35.78,-49.18,-53.94
2022/07/04 00:15:52+0000,-34.71,-44.38,-32.53,-34.57,-11.25,-54.18
2022/07/04 00:16:44+0000,-34.06,-44.07,-33.13,-34.25,-11.52,-54.10
2022/07/04 00:17:36+0000,-34.86,-44.14,-33.19,-34.38,-49.39,-54.06
2022/07/04 00:18:28+0000,-34.46,-45.10,-32.55,-34.61,-49.33,-54.55
2022/07/04 00:19:20+0000,-34.58,-44.62,-32.60,-34.48,-11.73,-53.88
2022/07/04 00:20:12+0000,-34.36,-45.27,-32.64,-34.64,-12.07,-54.06
2022/07/04 00:21:13+0000,-33.75,-45.14,-32.52,-35.27,-11.76,-54.22
2022/07/04 00:22:05+0000,-34.14,-45.04,-33.25,-34.96,-49.15,-54.25
2022/07/04 00:22:57+0000,-34.94,-44.90,-32.62,-34.57,-49.53,-54.58
2022/07/04 00:23:49+0000,-33.83,-44.84,-32.95,-35.38,-11.16,-54.63
2022/07/04 00:24:41+0000,-34.28,-44.71,-32.80,-34.50,-49.65,-54.10
2022/07/04 00:25:33+0000,-34.41,-45.85,-33.02,-34.97,-49.63,-54.54
2022/07/04 00:26:25+0000,-34.34,-43.65,-32.74,-34.85,-49.75,-54.43
2022/07/04 00:27:17+0000,-32.83,-44.43,-32.42,-34.61,-11.64,-54.13
2022/07/04 00:28:09+0000,-33.73,-43.97,-33.50,-33.70,-49.47,-54.27
2022/07/04 00:29:01+0000,-34.05,-44.30,-33.23,-34.68,-49.04,-54.19
2022/07/04 00:29:54+0000,-33.65,-44.39,-32.74,-34.72,-49.43,-54.24
2022/07/04 00:30:46+0000,-34.11,-44.31,-33.12,-35.18,-49.25,-53.84
2022/07/04 00:31:46+0000,-34.19,-43.70,-32.86,-35.00,-49.50,-54.15
2022/07/04 00:32:38+0000,-34.66,-44.61,-32.62,-34.40,-11.88,-53.80
2022/07/04 00:33:30+0000,-34.68,-45.15,-32.56,-35.03,-12.11,-54.58
2022/07/04 00:34:22+0000,-34.34,-45.28,-32.98,-35.34,-48.86,-54.76
2022/07/04 00:35:14+0000,-34.37,-45.42,-33.48,-35.41,-49.58,-54.63
2022/07/04 00:36:06+0000,-34.44,-43.70,-32.78,-34.36,-12.13,-54.50
2022/07/04 00:36:58+0000,-34.57,-43.69,-32.85,-34.31,-12.33,-54.28
2022/07/04 00:37:50+0000,-34.20,-43.91,-32.30,-35.01,-48.95,-53.92
2022/07/04 00:38:42+0000,-34.62,-43.77,-33.17,-33.67,-49.08,-54.21
2022/07/04 00:39:34+0000,-33.86,-44.08,-32.81,-34.12,-11.66,-54.46
2022/07/04 00:40:26+0000,-33.96,-44.11,-32.60,-33.90,-49.33,-54.64
2022/07/04 00:41:26+0000,-33.86,-44.28,-32.79,-34.64,-49.12,-55.05
2022/07/04 00:42:18+0000,-33.39,-45.59,-32.59,-35.22,-49.21,-54.48
2022/07/04 00:43:10+0000,-33.77,-44.82,-32.82,-34.36,-11.08,-54.50
2022/07/04 00:44:02+0000,-33.50,-44.66,-33.13,-34.09,-11.67,-55.21
2022/07/04 00:44:54+0000,-34.51,-44.00,-32.69,-33.90,-49.51,-54.33
2022/07/04 00:45:46+0000,-34.39,-43.70,-32.65,-34.41,-49.27,-54.67
2022/07/04 00:46:38+0000,-34.30,-45.80,-32.61,-34.36,-11.81,-54.47
2022/07/04 00:47:30+0000,-34.38,-44.86,-32.91,-34.70,-11.32,-54.47
2022/07/04 00:48:22+0000,-33.89,-44.37,-32.47,-34.56,-49.21,-54.81
2022/07/04 00:49:14+0000,-33.74,-44.58,-32.52,-33.92,-49.28,-54.65
2022/07/04 00:50:06+0000,-33.95,-44.35,-32.76,-34.99,-49.28,-54.55
2022/07/04 00:51:05+0000,-33.82,-44.10,-33.05,-34.19,-49.10,-54.20
2022/07/04 00:51:58+0000,-33.15,-44.82,-32.50,-34.29,-48.84,-54.56
2022/07/04 00:52:50+0000,-34.19,-44.12,-33.26,-34.27,-48.54,-54.42
2022/07/04 00:53:42+0000,-33.74,-44.63,-32.59,-34.58,-49.57,-54.72
2022/07/04 00:54:34+0000,-33.91,-44.27,-32.99,-35.15,-49.55,-54.30
2022/07/04 00:55:26+0000,-34.08,-44.82,-32.88,-34.40,-49.10,-54.09
2022/07/04 00:56:18+0000,-32.34,-44.86,-33.13,-34.48,-48.63,-54.64
2022/07/04 00:57:10+0000,-34.15,-45.01,-32.77,-35.01,-49.42,-54.26
2022/07/04 00:58:02+0000,-33.64,-44.95,-32.82,-35.38,-48.99,-54.19
2022/07/04 00:58:54+0000,-34.05,-44.47,-33.42,-34.08,-49.13,-55.10
2022/07/04 00:59:46+0000,-31.39,-43.63,-32.45,-34.72,-50.14,-54.24
2022/07/04 01:00:38+0000,-31.28,-43.37,-33.06,-33.56,-48.48,-54.15
2022/07/04 01:01:39+0000,-31.16,-44.43,-32.90,-34.11,-49.14,-54.80
2022/07/04 01:02:31+0000,-32.04,-43.54,-32.99,-34.85,-49.50,-54.26
2022/07/04 01:03:23+0000,-31.43,-44.72,-32.87,-33.31,-49.87,-54.15
2022/07/04 01:04:15+0000,-31.39,-44.33,-32.69,-34.22,-49.31,-54.65
2022/07/04 01:05:07+0000,-31.26,-43.82,-33.53,-34.45,-50.27,-54.83
2022/07/04 01:05:59+0000,-32.40,-44.06,-33.44,-34.91,-49.91,-54.61
2022/07/04 01:06:51+0000,-31.55,-44.27,-33.18,-34.55,-49.56,-54.44
2022/07/04 01:07:43+0000,-32.08,-43.29,-32.86,-33.85,-49.28,-55.20
2022/07/04 01:08:35+0000,-32.31,-43.16,-33.17,-34.38,-49.36,-54.13
2022/07/04 01:09:27+0000,-32.41,-44.51,-32.98,-33.92,-26.80,-54.26
2022/07/04 01:10:19+0000,-32.03,-44.36,-32.67,-34.41,-49.78,-54.06
2022/07/04 01:11:18+0000,-32.77,-45.12,-32.97,-34.17,-49.96,-54.30
2022/07/04 01:12:10+0000,-32.23,-45.03,-32.96,-34.06,-49.82,-54.64
2022/07/04 01:13:02+0000,-31.92,-44.85,-33.30,-34.39,-29.31,-54.38
2022/07/04 01:13:54+0000,-32.99,-45.57,-33.14,-34.08,-49.93,-54.92
2022/07/04 01:14:46+0000,-32.17,-45.23,-32.68,-34.30,-50.17,-54.14
2022/07/04 01:15:38+0000,-32.47,-45.06,-32.97,-34.44,-49.99,-54.50
2022/07/04 01:16:30+0000,-32.99,-44.68,-33.03,-34.41,-49.42,-54.84
2022/07/04 01:17:22+0000,-32.47,-44.64,-33.27,-34.49,-49.31,-54.35
2022/07/04 01:18:14+0000,-31.92,-44.11,-33.33,-34.95,-49.38,-54.37
2022/07/04 01:19:06+0000,-32.96,-44.12,-33.00,-35.16,-48.94,-54.64
2022/07/04 01:19:59+0000,-32.70,-44.32,-32.93,-34.65,-49.59,-54.63
2022/07/04 01:20:51+0000,-33.36,-44.12,-32.68,-34.59,-49.39,-54.69
2022/07/04 01:21:51+0000,-32.14,-44.56,-32.09,-34.89,-49.55,-54.46
2022/07/04 01:22:43+0000,-32.54,-43.89,-32.72,-34.56,-49.53,-54.04
2022/07/04 01:23:35+0000,-32.45,-44.67,-33.41,-34.58,-49.68,-54.57
2022/07/04 01:24:27+0000,-32.80,-44.68,-32.78,-35.15,-49.68,-54.10
2022/07/04 01:25:19+0000,-32.27,-45.13,-33.12,-35.04,-48.70,-54.04
2022/07/04 01:26:11+0000,-33.06,-44.06,-33.35,-34.80,-49.73,-54.74
2022/07/04 01:27:03+0000,-32.46,-44.60,-32.42,-34.41,-49.30,-54.68
2022/07/04 01:27:55+0000,-32.22,-44.41,-31.97,-34.35,-49.34,-54.49
2022/07/04 01:28:47+0000,-32.25,-44.31,-32.29,-34.33,-48.76,-54.38
2022/07/04 01:29:40+0000,-32.78,-44.73,-32.76,-34.48,-49.16,-54.80
2022/07/04 01:30:32+0000,-31.86,-44.63,-32.54,-34.71,-50.12,-54.41
2022/07/04 01:31:32+0000,-32.70,-44.44,-32.57,-34.40,-50.04,-54.42
2022/07/04 01:32:24+0000,-33.77,-44.72,-33.13,-34.60,-49.04,-54.88
2022/07/04 01:33:16+0000,-33.56,-44.18,-32.78,-34.85,-49.27,-54.42
2022/07/04 01:34:08+0000,-33.53,-44.55,-32.49,-35.34,-49.68,-54.32
2022/07/04 01:35:00+0000,-33.16,-44.15,-32.79,-34.07,-49.54,-54.09
2022/07/04 01:35:52+0000,-33.41,-44.12,-32.54,-35.38,-49.84,-54.25
2022/07/04 01:36:44+0000,-33.27,-44.82,-32.99,-35.23,-49.58,-54.69
2022/07/04 01:37:36+0000,-34.24,-45.40,-33.01,-34.79,-49.10,-54.65
2022/07/04 01:38:28+0000,-32.49,-44.47,-33.42,-35.22,-48.32,-54.66
2022/07/04 01:39:20+0000,-33.67,-44.54,-32.99,-34.61,-49.44,-54.95
2022/07/04 01:40:12+0000,-32.77,-44.43,-33.02,-35.15,-49.61,-54.94
2022/07/04 01:41:11+0000,-33.38,-45.71,-32.22,-34.57,-48.97,-54.55
2022/07/04 01:42:03+0000,-33.46,-43.95,-32.80,-34.63,-49.02,-54.75
2022/07/04 01:42:55+0000,-33.67,-45.36,-33.01,-34.73,-48.64,-54.44
2022/07/04 01:43:48+0000,-33.10,-45.66,-32.35,-34.59,-48.60,-53.87
2022/07/04 01:44:40+0000,-33.67,-43.33,-32.86,-35.32,-48.79,-54.21
2022/07/04 01:45:32+0000,-33.35,-44.66,-32.39,-35.77,-48.29,-54.29
2022/07/04 01:46:24+0000,-33.58,-44.55,-32.46,-34.71,-48.57,-54.59
2022/07/04 01:47:16+0000,-33.36,-43.45,-32.97,-35.74,-48.85,-54.51
2022/07/04 01:48:08+0000,-33.52,-43.24,-33.02,-36.01,-49.05,-54.21
2022/07/04 01:49:00+0000,-34.11,-43.86,-32.62,-34.58,-48.83,-53.09
2022/07/04 01:49:52+0000,-34.44,-45.18,-32.63,-35.45,-49.00,-52.58
2022/07/04 01:50:44+0000,-33.77,-43.93,-33.03,-35.93,-48.44,-54.30
2022/07/04 01:51:48+0000,-33.15,-43.91,-32.39,-35.03,-49.16,-54.28
2022/07/04 01:52:40+0000,-33.98,-44.54,-32.95,-34.87,-48.23,-54.18
2022/07/04 01:53:32+0000,-34.84,-44.28,-32.88,-35.60,-48.28,-53.95
2022/07/04 01:54:24+0000,-33.92,-44.95,-32.22,-34.46,-48.98,-54.90
2022/07/04 01:55:16+0000,-34.04,-43.34,-32.66,-34.91,-48.87,-54.49
2022/07/04 01:56:08+0000,-33.92,-45.17,-32.61,-34.21,-48.34,-54.08
2022/07/04 01:57:00+0000,-34.35,-45.15,-32.72,-33.96,-49.54,-54.99
2022/07/04 01:57:52+0000,-35.00,-45.19,-32.99,-33.95,-49.02,-54.41
2022/07/04 01:58:44+0000,-33.33,-46.40,-33.10,-33.85,-48.83,-54.48
2022/07/04 01:59:36+0000,-33.85,-45.05,-32.67,-33.90,-48.62,-55.19
2022/07/04 02:00:28+0000,-34.31,-45.28,-33.09,-33.73,-48.98,-54.79
2022/07/04 02:01:29+0000,-33.53,-45.49,-33.26,-34.02,-49.65,-54.47
2022/07/04 02:02:21+0000,-34.14,-45.60,-31.85,-34.94,-48.97,-54.68
2022/07/04 02:03:13+0000,-33.24,-45.74,-32.57,-33.66,-48.82,-54.86
2022/07/04 02:04:05+0000,-32.87,-46.02,-33.15,-33.58,-48.40,-54.92
2022/07/04 02:04:57+0000,-33.55,-45.12,-32.70,-34.19,-47.86,-54.57
2022/07/04 02:05:49+0000,-33.34,-44.81,-33.46,-33.71,-48.59,-54.98
2022/07/04 02:06:41+0000,-33.39,-44.61,-32.89,-33.32,-48.48,-54.82
2022/07/04 02:07:33+0000,-33.55,-44.48,-33.55,-33.69,-47.75,-55.19
2022/07/04 02:08:26+0000,-33.92,-42.50,-32.73,-34.09,-47.78,-55.40
2022/07/04 02:09:18+0000,-33.48,-43.93,-32.93,-34.37,-48.34,-54.79
2022/07/04 02:10:10+0000,-33.15,-44.49,-32.80,-33.14,-48.39,-54.66
2022/07/04 02:11:10+0000,-33.15,-44.51,-32.87,-33.89,-48.07,-54.50
2022/07/04 02:12:02+0000,-34.23,-43.87,-33.12,-32.99,-47.44,-54.61
2022/07/04 02:12:54+0000,-33.62,-43.34,-32.79,-34.01,-47.87,-54.92
2022/07/04 02:13:46+0000,-33.75,-44.84,-32.86,-32.97,-48.24,-54.95
2022/07/04 02:14:38+0000,-33.74,-43.81,-32.51,-33.67,-47.66,-54.52
2022/07/04 02:15:30+0000,-33.86,-44.27,-32.73,-33.84,-47.42,-54.95
2022/07/04 02:16:22+0000,-33.42,-44.13,-32.60,-34.09,-48.31,-53.56
2022/07/04 02:17:14+0000,-33.24,-44.11,-32.20,-33.78,-47.77,-54.53
2022/07/04 02:18:06+0000,-33.68,-43.44,-32.47,-33.34,-48.67,-54.58
2022/07/04 02:18:59+0000,-34.00,-43.35,-32.92,-33.71,-48.12,-54.37
2022/07/04 02:19:51+0000,-33.85,-44.49,-32.96,-33.47,-47.94,-54.97
2022/07/04 02:20:43+0000,-33.84,-43.99,-32.48,-33.66,-47.83,-54.63
2022/07/04 02:21:42+0000,-33.45,-44.49,-32.71,-33.99,-48.08,-55.16
2022/07/04 02:22:34+0000,-32.77,-42.66,-32.06,-34.25,-47.87,-54.66
2022/07/04 02:23:26+0000,-33.55,-42.60,-32.85,-34.18,-48.35,-54.76
2022/07/04 02:24:18+0000,-33.63,-43.66,-32.30,-33.55,-48.64,-54.80
2022/07/04 02:25:10+0000,-33.67,-44.01,-32.38,-34.75,-48.03,-53.98
2022/07/04 02:26:02+0000,-33.59,-44.73,-32.90,-33.74,-48.82,-54.30
2022/07/04 02:26:54+0000,-33.07,-44.55,-32.48,-32.97,-48.78,-55.13
2022/07/04 02:27:46+0000,-32.82,-45.46,-32.48,-33.22,-49.15,-54.56
2022/07/04 02:28:38+0000,-34.01,-44.22,-31.86,-33.48,-48.42,-54.66
2022/07/04 02:29:30+0000,-33.28,-44.75,-32.93,-33.54,-48.62,-54.52
2022/07/04 02:30:23+0000,-33.65,-43.42,-32.15,-33.36,-48.52,-55.41
2022/07/04 02:31:23+0000,-33.94,-43.07,-32.37,-33.78,-48.75,-54.96
2022/07/04 02:32:15+0000,-33.64,-43.87,-32.82,-34.08,-48.21,-54.69
2022/07/04 02:33:07+0000,-33.67,-44.66,-32.13,-33.93,-48.79,-54.24
2022/07/04 02:33:59+0000,-33.66,-44.08,-32.52,-33.63,-48.98,-54.33
2022/07/04 02:34:51+0000,-34.06,-43.53,-32.20,-33.32,-48.81,-53.89
2022/07/04 02:35:43+0000,-34.14,-44.11,-32.27,-33.65,-49.00,-55.37
2022/07/04 02:36:35+0000,-33.61,-42.15,-32.65,-34.62,-48.42,-54.52
2022/07/04 02:37:27+0000,-33.61,-42.94,-32.75,-33.99,-48.01,-54.62
2022/07/04 02:38:19+0000,-32.36,-43.60,-32.23,-34.26,-48.22,-54.52
2022/07/04 02:39:11+0000,-32.99,-42.42,-32.44,-33.89,-48.80,-54.81
2022/07/04 02:40:03+0000,-34.05,-43.91,-32.99,-33.52,-48.82,-54.16
2022/07/04 02:41:03+0000,-33.41,-43.80,-32.15,-34.14,-48.49,-54.29
2022/07/04 02:41:55+0000,-32.91,-43.67,-32.99,-33.91,-48.23,-54.61
2022/07/04 02:42:47+0000,-33.37,-42.12,-32.26,-33.85,-48.99,-54.91
2022/07/04 02:43:39+0000,-32.85,-43.24,-32.30,-33.42,-48.72,-54.65
2022/07/04 02:44:31+0000,-33.64,-43.93,-32.27,-33.83,-48.64,-54.14
2022/07/04 02:45:23+0000,-33.39,-43.59,-32.28,-34.41,-47.96,-54.34
2022/07/04 02:46:15+0000,-33.87,-43.25,-32.18,-34.60,-48.16,-55.10
2022/07/04 02:47:07+0000,-32.91,-43.95,-32.52,-33.44,-47.84,-55.30
2022/07/04 02:47:59+0000,-33.85,-43.19,-32.45,-33.73,-48.58,-55.00
2022/07/04 02:48:51+0000,-33.87,-44.07,-32.36,-34.18,-48.93,-54.73
2022/07/04 02:49:43+0000,-33.45,-42.56,-32.23,-33.80,-47.51,-54.72
2022/07/04 02:50:35+0000,-33.73,-43.26,-32.29,-33.94,-48.42,-54.70
2022/07/04 02:51:35+0000,-32.68,-44.18,-32.37,-34.46,-47.57,-54.70
2022/07/04 02:52:27+0000,-32.12,-42.98,-32.65,-33.59,-48.06,-54.68
2022/07/04 02:53:19+0000,-32.98,-42.91,-32.26,-33.92,-47.73,-54.88
2022/07/04 02:54:11+0000,-32.79,-41.38,-32.39,-33.22,-48.63,-54.09
2022/07/04 02:55:03+0000,-32.62,-42.72,-32.17,-33.60,-48.61,-54.42
2022/07/04 02:55:55+0000,-32.29,-42.39,-32.48,-33.21,-48.55,-54.74
2022/07/04 02:56:47+0000,-33.72,-42.93,-32.83,-33.74,-48.15,-54.54
2022/07/04 02:57:39+0000,-33.60,-42.63,-32.53,-33.17,-47.65,-54.67
2022/07/04 02:58:31+0000,-32.42,-41.93,-31.76,-33.43,-47.75,-54.89
2022/07/04 02:59:23+0000,-33.40,-43.15,-32.53,-33.32,-48.85,-54.40
2022/07/04 03:00:16+0000,-33.90,-43.66,-32.46,-34.12,-48.64,-54.42
2022/07/04 03:01:15+0000,-34.24,-42.64,-32.94,-34.07,-49.05,-55.43
2022/07/04 03:02:07+0000,-33.52,-42.98,-32.90,-33.47,-48.80,-54.96
2022/07/04 03:02:59+0000,-33.42,-42.20,-32.01,-33.52,-47.80,-54.80
2022/07/04 03:03:51+0000,-32.82,-44.23,-32.56,-33.23,-48.74,-54.63
2022/07/04 03:04:43+0000,-33.55,-42.77,-32.51,-33.55,-47.49,-54.52
2022/07/04 03:05:35+0000,-34.03,-43.48,-32.37,-33.47,-47.86,-54.98
2022/07/04 03:06:27+0000,-33.25,-42.28,-32.39,-34.21,-48.26,-53.99
2022/07/04 03:07:19+0000,-33.43,-41.31,-32.66,-33.79,-47.43,-54.92
2022/07/04 03:08:11+0000,-33.31,-43.15,-32.29,-33.40,-46.99,-54.73
2022/07/04 03:09:03+0000,-33.66,-42.49,-32.43,-33.82,-48.96,-54.52
2022/07/04 03:09:56+0000,-33.55,-41.06,-32.69,-33.51,-49.43,-54.45
2022/07/04 03:10:48+0000,-34.02,-41.95,-31.99,-33.33,-46.28,-55.25
2022/07/04 03:11:48+0000,-34.32,-42.78,-32.71,-32.94,-47.30,-54.65
2022/07/04 03:12:40+0000,-32.77,-41.64,-32.76,-33.36,-48.70,-54.33
2022/07/04 03:13:32+0000,-33.25,-42.37,-32.21,-33.69,-47.92,-54.49
2022/07/04 03:14:24+0000,-33.52,-42.82,-32.53,-34.20,-48.14,-54.76
2022/07/04 03:15:16+0000,-32.93,-42.09,-32.36,-32.73,-46.28,-53.87
2022/07/04 03:16:08+0000,-33.41,-43.51,-32.72,-33.49,-48.70,-54.18
2022/07/04 03:17:00+0000,-33.45,-43.08,-32.60,-32.25,-48.43,-54.98
2022/07/04 03:17:52+0000,-33.94,-43.88,-32.35,-33.09,-46.89,-53.57
2022/07/04 03:18:44+0000,-33.16,-42.67,-32.35,-33.58,-47.02,-54.76
2022/07/04 03:19:36+0000,-32.89,-43.45,-32.47,-33.71,-48.89,-54.62
2022/07/04 03:20:28+0000,-33.37,-42.75,-32.70,-33.22,-47.99,-54.13
2022/07/04 03:21:28+0000,-33.07,-43.61,-32.85,-32.89,-48.16,-53.55
2022/07/04 03:22:20+0000,-32.84,-43.97,-32.18,-33.03,-47.74,-54.30
2022/07/04 03:23:12+0000,-34.05,-43.11,-32.73,-32.93,-47.42,-54.32
2022/07/04 03:24:04+0000,-33.46,-42.95,-32.70,-33.36,-48.51,-54.29
2022/07/04 03:24:56+0000,-32.71,-42.60,-32.82,-32.76,-48.43,-54.12
2022/07/04 03:25:48+0000,-33.28,-41.79,-32.54,-32.83,-47.78,-54.83
2022/07/04 03:26:40+0000,-32.65,-41.19,-32.83,-33.79,-48.69,-54.15
2022/07/04 03:27:32+0000,-29.00,-42.17,-32.50,-33.40,-49.34,-54.91
2022/07/04 03:28:24+0000,-33.68,-42.76,-33.39,-33.34,-48.82,-54.14
2022/07/04 03:29:16+0000,-33.05,-42.12,-31.79,-33.52,-48.34,-54.71
2022/07/04 03:30:08+0000,-32.37,-42.90,-32.21,-33.98,-48.04,-53.50
2022/07/04 03:31:08+0000,-30.87,-42.17,-32.62,-33.64,-48.49,-54.25
2022/07/04 03:32:00+0000,-32.96,-43.47,-32.99,-33.07,-48.72,-53.95
2022/07/04 03:32:53+0000,-32.20,-43.53,-32.11,-34.09,-48.55,-54.43
2022/07/04 03:33:45+0000,-32.96,-42.25,-32.86,-33.33,-48.94,-53.44
2022/07/04 03:34:37+0000,-33.52,-43.52,-32.37,-32.58,-49.07,-54.23
2022/07/04 03:35:29+0000,-33.76,-42.64,-32.32,-32.74,-48.77,-54.36
2022/07/04 03:36:21+0000,-32.54,-43.09,-32.85,-34.14,-48.96,-53.98
2022/07/04 03:37:13+0000,-32.68,-41.81,-32.28,-33.79,-47.90,-54.15
2022/07/04 03:38:05+0000,-32.95,-42.71,-31.88,-33.44,-48.28,-54.64
2022/07/04 03:38:57+0000,-32.61,-44.48,-32.49,-32.60,-47.73,-54.05
2022/07/04 03:39:49+0000,-32.74,-42.98,-32.29,-33.01,-48.20,-54.44
2022/07/04 03:40:41+0000,-33.43,-43.43,-32.25,-32.78,-48.86,-54.37
2022/07/04 03:41:40+0000,-32.68,-43.13,-32.34,-33.17,-47.82,-53.27
2022/07/04 03:42:32+0000,-33.00,-44.08,-32.11,-33.52,-48.62,-53.89
2022/07/04 03:43:24+0000,-33.44,-43.61,-32.24,-33.01,-48.76,-54.09
2022/07/04 03:44:16+0000,-32.50,-42.78,-33.10,-33.49,-48.45,-54.42
2022/07/04 03:45:08+0000,-32.83,-44.56,-32.27,-33.96,-48.10,-54.06
2022/07/04 03:46:00+0000,-33.15,-42.82,-32.36,-34.63,-48.12,-54.51
2022/07/04 03:46:52+0000,-33.43,-43.59,-32.76,-33.24,-48.22,-53.83
2022/07/04 03:47:44+0000,-31.85,-42.97,-32.57,-32.48,-47.88,-53.42
2022/07/04 03:48:36+0000,-32.70,-43.04,-32.79,-32.72,-48.34,-53.80
2022/07/04 03:49:28+0000,-33.02,-43.32,-32.52,-32.95,-48.26,-54.06
2022/07/04 03:50:21+0000,-33.22,-43.09,-32.43,-33.29,-48.08,-53.41
2022/07/04 03:51:20+0000,-32.72,-42.29,-32.31,-32.73,-47.58,-53.81
2022/07/04 03:52:12+0000,-33.34,-41.18,-32.20,-33.11,-47.72,-54.03
2022/07/04 03:53:04+0000,-33.65,-43.38,-32.52,-33.17,-48.04,-54.18
2022/07/04 03:53:56+0000,-32.59,-43.12,-32.88,-32.73,-47.90,-53.54
2022/07/04 03:54:48+0000,-32.59,-43.34,-32.64,-33.57,-48.32,-54.22
2022/07/04 03:55:40+0000,-32.73,-42.05,-32.33,-32.76,-47.87,-53.89
2022/07/04 03:56:32+0000,-33.36,-42.31,-32.59,-32.77,-48.12,-53.75
2022/07/04 03:57:24+0000,-31.48,-42.11,-32.61,-32.85,-48.60,-53.72
2022/07/04 03:58:16+0000,-32.99,-43.24,-32.50,-33.07,-47.81,-54.11
2022/07/04 03:59:08+0000,-33.64,-42.75,-33.07,-32.89,-47.98,-54.07
2022/07/04 04:00:00+0000,-32.61,-42.65,-32.36,-33.19,-48.60,-53.76
2022/07/04 04:01:00+0000,-32.57,-41.53,-32.70,-33.51,-48.25,-53.70
2022/07/04 04:01:52+0000,-32.32,-42.13,-32.49,-33.08,-47.57,-54.40
2022/07/04 04:02:44+0000,-33.18,-42.18,-32.55,-33.26,-48.82,-53.93
2022/07/04 04:03:36+0000,-33.13,-43.03,-32.98,-32.70,-48.45,-54.55
2022/07/04 04:04:28+0000,-31.66,-42.24,-32.92,-32.74,-47.93,-54.56
2022/07/04 04:05:20+0000,-32.45,-42.10,-32.18,-33.39,-47.61,-54.46
2022/07/04 04:06:12+0000,-32.65,-40.56,-32.66,-32.39,-48.15,-54.07
2022/07/04 04:07:04+0000,-32.15,-41.13,-32.45,-32.79,-47.82,-54.06
2022/07/04 04:07:56+0000,-32.56,-42.45,-32.65,-33.04,-48.05,-54.10
2022/07/04 04:08:48+0000,-32.25,-42.05,-32.46,-32.65,-48.16,-54.74
2022/07/04 04:09:40+0000,-32.73,-43.54,-32.44,-33.24,-47.39,-53.52
2022/07/04 04:10:32+0000,-31.63,-41.94,-32.40,-33.54,-48.16,-53.75
2022/07/04 04:11:34+0000,-32.23,-42.19,-32.03,-33.29,-48.21,-53.64
2022/07/04 04:12:26+0000,-31.56,-41.63,-32.30,-33.49,-48.13,-53.59
2022/07/04 04:13:18+0000,-32.10,-44.00,-32.12,-33.12,-49.07,-53.61
2022/07/04 04:14:10+0000,-31.84,-42.74,-32.45,-32.82,-48.35,-53.06
2022/07/04 04:15:02+0000,-33.45,-42.50,-32.34,-33.54,-48.09,-53.72
2022/07/04 04:15:54+0000,-31.98,-42.97,-32.09,-33.27,-48.63,-53.46
2022/07/04 04:16:46+0000,-31.86,-41.33,-32.01,-33.11,-48.54,-53.76
2022/07/04 04:17:38+0000,-32.11,-42.34,-32.77,-33.40,-48.95,-53.50
2022/07/04 04:18:30+0000,-32.83,-42.83,-32.67,-33.36,-48.98,-53.94
2022/07/04 04:19:22+0000,-30.93,-42.80,-31.89,-33.08,-48.16,-53.92
2022/07/04 04:20:14+0000,-33.43,-43.19,-32.13,-33.06,-48.20,-53.57
2022/07/04 04:21:16+0000,-32.13,-42.70,-32.07,-33.07,-48.58,-53.81
2022/07/04 04:22:08+0000,-32.19,-41.27,-31.68,-32.84,-48.51,-54.16
2022/07/04 04:23:00+0000,-31.82,-41.43,-31.71,-33.61,-49.01,-53.34
2022/07/04 04:23:52+0000,-31.72,-42.34,-32.54,-33.02,-47.29,-53.38
2022/07/04 04:24:44+0000,-31.33,-42.31,-32.25,-33.62,-48.21,-53.10
2022/07/04 04:25:36+0000,-32.04,-41.84,-31.31,-32.94,-47.94,-53.57
2022/07/04 04:26:28+0000,-31.95,-41.23,-31.81,-33.37,-47.96,-52.56
2022/07/04 04:27:20+0000,-31.17,-42.39,-32.10,-33.23,-48.49,-52.80
2022/07/04 04:28:12+0000,-31.82,-39.92,-31.89,-33.35,-48.06,-52.46
2022/07/04 04:29:04+0000,-31.61,-42.40,-32.16,-33.53,-47.95,-53.27
2022/07/04 04:29:56+0000,-31.83,-41.87,-31.30,-33.08,-47.94,-53.23
2022/07/04 04:30:48+0000,-30.20,-41.17,-31.57,-33.81,-48.58,-53.06
2022/07/04 04:31:48+0000,-29.84,-41.51,-31.52,-33.89,-48.35,-52.51
2022/07/04 04:32:40+0000,-31.82,-41.97,-31.81,-32.63,-47.95,-53.26
2022/07/04 04:33:32+0000,-32.85,-40.87,-31.97,-33.22,-48.62,-52.14
2022/07/04 04:34:24+0000,-30.97,-42.50,-31.73,-32.30,-48.34,-53.38
2022/07/04 04:35:16+0000,-32.40,-40.97,-31.57,-34.10,-48.27,-53.17
2022/07/04 04:36:08+0000,-32.18,-41.88,-31.44,-34.06,-48.68,-52.63
2022/07/04 04:37:00+0000,-31.69,-41.87,-31.74,-33.04,-48.38,-52.90
2022/07/04 04:37:52+0000,-31.74,-43.22,-31.49,-33.32,-48.50,-53.49
2022/07/04 04:38:44+0000,-32.56,-40.65,-31.75,-32.88,-48.30,-53.16
2022/07/04 04:39:36+0000,-31.42,-42.84,-32.07,-33.74,-48.79,-53.59
2022/07/04 04:40:28+0000,-32.33,-42.40,-31.30,-33.24,-48.37,-53.22
2022/07/04 04:41:29+0000,-32.15,-41.69,-31.53,-33.14,-47.73,-53.57
2022/07/04 04:42:21+0000,-33.03,-42.97,-31.42,-33.10,-47.96,-53.59
2022/07/04 04:43:13+0000,-32.44,-40.95,-31.56,-33.22,-48.27,-52.85
2022/07/04 04:44:05+0000,-31.23,-42.35,-31.18,-33.56,-48.07,-53.04
2022/07/04 04:44:57+0000,-31.83,-41.82,-31.20,-32.99,-47.91,-52.80
2022/07/04 04:45:49+0000,-32.06,-42.55,-32.11,-33.05,-48.09,-53.54
2022/07/04 04:46:41+0000,-31.92,-41.59,-31.77,-33.13,-48.33,-52.69